FW2895 Weather Reports


time (UTC)temp
C
wind
direction
speed
KPH
gust
KPH
rain 1hr
cm
rain 24hr
cm
rain mn
cm
humidity
%
barometer
mb
20260509101313 21 149 3.2 6.4 0.00 0.10 0.00 91 1011.8
20260509101212 21 164 3.2 6.4 0.00 0.10 0.00 90 1011.8
20260509095311 21 146 1.6 4.8 0.00 0.10 0.00 90 1011.7
20260509092312 21 247 0.0 0.0 0.00 0.10 0.00 90 1011.5
20260509091311 21 279 1.6 6.4 0.00 0.10 0.00 90 1011.7
20260509090314 21 180 0.0 4.8 0.00 0.10 0.00 90 1011.1
20260509090212 21 202 1.6 3.2 0.00 0.10 0.00 90 1011.0
20260509085213 21 154 8.0 16.1 0.00 0.10 0.00 89 1009.9
20260509085111 21 174 6.4 14.5 0.00 0.10 0.00 90 1010.0
20260509084010 21 158 6.4 17.7 0.00 0.15 0.00 89 1009.7
20260509082012 21 164 4.8 12.9 0.00 0.18 0.00 88 1010.6
20260509081012 21 181 4.8 9.7 0.00 0.18 0.00 89 1011.3
20260509080012 21 179 3.2 6.4 0.00 0.18 0.00 88 1011.7
20260509075111 21 196 4.8 8.0 0.00 0.18 0.00 89 1012.3
20260509074113 21 176 4.8 9.7 0.00 0.18 0.00 89 1012.5
20260509073212 21 175 3.2 8.0 0.00 0.18 0.00 87 1012.7
20260509071213 21 180 1.6 3.2 0.00 0.18 0.00 88 1013.4
20260509070310 21 225 1.6 3.2 0.00 0.18 0.00 88 1013.7
20260509070213 21 223 1.6 4.8 0.00 0.18 0.00 88 1013.7
20260509065211 20 202 0.0 3.2 0.00 0.18 0.00 88 1013.8
20260509064213 20 225 0.0 1.6 0.00 0.18 0.00 88 1013.7
20260509063312 21 244 1.6 3.2 0.00 0.18 0.00 88 1013.5
20260509061412 20 202 0.0 1.6 0.00 0.18 0.00 87 1013.4
20260509060413 20 181 0.0 6.4 0.00 0.18 0.00 86 1013.4
20260509055413 20 175 3.2 4.8 0.00 0.18 0.00 85 1013.3
20260509054510 21 180 0.0 0.0 0.00 0.18 0.00 83 1014.2
20260509053512 21 225 0.0 0.0 0.00 0.18 0.00 84 1014.3
20260509053413 21 225 0.0 0.0 0.00 0.18 0.00 84 1014.2
20260509052310 21 180 1.6 1.6 0.00 0.18 0.00 84 1014.2
20260509051311 21 301 3.2 6.4 0.00 0.18 0.00 82 1014.8
20260509051211 21 326 4.8 6.4 0.00 0.18 0.00 82 1014.9
20260509044410 21 184 4.8 8.0 0.00 0.18 0.18 81 1013.0
20260509043410 22 194 1.6 8.0 0.00 0.18 0.18 79 1013.3
20260509043310 22 180 0.0 1.6 0.00 0.18 0.18 80 1013.3
20260509042310 22 168 3.2 8.0 0.00 0.18 0.18 80 1013.3
20260509041309 22 135 4.8 9.7 0.00 0.18 0.18 80 1013.1
20260509035409 22 129 6.4 11.3 0.00 0.18 0.18 78 1012.9
20260509034408 22 156 4.8 6.4 0.00 0.18 0.18 79 1013.3
20260509033410 22 135 0.0 0.0 0.00 0.18 0.18 79 1013.7
20260509032410 22 135 0.0 0.0 0.00 0.18 0.18 79 1013.6
20260509031410 22 168 0.0 3.2 0.00 0.18 0.18 79 1013.5
20260509025510 22 165 0.0 0.0 0.00 0.18 0.18 77 1013.0
20260509024509 22 144 8.0 12.9 0.00 0.18 0.18 78 1012.6
20260509023510 22 180 3.2 8.0 0.00 0.18 0.18 77 1012.2
20260509020609 22 136 6.4 11.3 0.00 0.18 0.18 76 1011.8
20260509015609 22 170 3.2 8.0 0.00 0.18 0.18 75 1011.8
20260509014608 22 167 3.2 9.7 0.00 0.18 0.18 75 1011.8
20260509013611 22 197 3.2 6.4 0.00 0.18 0.18 75 1011.9
20260509012611 22 180 0.0 3.2 0.00 0.18 0.18 74 1011.8
20260509010710 22 200 1.6 4.8 0.00 0.18 0.18 73 1011.8
20260509005711 23 195 0.0 4.8 0.00 0.18 0.18 72 1011.7
20260509005610 23 202 0.0 0.0 0.00 0.18 0.18 72 1011.5
20260509004609 23 175 1.6 4.8 0.00 0.18 0.18 71 1011.3
20260509002612 23 153 8.0 12.9 0.00 0.18 0.18 68 1011.1
20260509001708 23 150 4.8 12.9 0.00 0.18 0.18 67 1011.0
20260508235809 23 174 3.2 6.4 0.00 0.18 0.18 67 1011.2
20260508233809 24 191 3.2 9.7 0.00 0.18 0.18 66 1011.6
20260508232711 24 189 3.2 6.4 0.00 0.18 0.18 65 1011.5
20260508231809 24 147 4.8 9.7 0.00 0.18 0.18 65 1011.4
20260508230811 23 169 3.2 8.0 0.00 0.18 0.18 63 1011.6
20260508225907 24 154 4.8 12.9 0.00 0.18 0.18 63 1011.7
20260508224910 24 197 4.8 11.3 0.00 0.18 0.18 64 1011.6
20260508223909 25 173 4.8 9.7 0.00 0.18 0.18 62 1011.7
20260508223008 25 195 3.2 11.3 0.00 0.18 0.18 62 1011.6
20260508222008 25 200 4.8 11.3 0.00 0.18 0.18 61 1011.7
20260508221910 25 197 3.2 9.7 0.00 0.18 0.18 61 1011.6
20260508220911 26 224 6.4 11.3 0.00 0.18 0.18 59 1011.4
20260508215909 26 152 8.0 12.9 0.00 0.18 0.18 59 1011.5
20260508214908 26 207 3.2 9.7 0.00 0.18 0.18 58 1011.5
20260508212010 24 164 4.8 9.7 0.00 0.18 0.18 61 1011.8
20260508205108 23 170 6.4 12.9 0.00 0.18 0.18 65 1012.5
20260508204109 23 200 4.8 8.0 0.00 0.18 0.18 64 1012.9
20260508203109 23 196 3.2 11.3 0.00 0.18 0.18 64 1013.7
20260508202109 23 208 3.2 4.8 0.00 0.18 0.18 63 1013.7
20260508201208 24 208 3.2 6.4 0.00 0.18 0.18 61 1013.7
20260508200210 24 176 4.8 11.3 0.00 0.18 0.18 60 1013.7
20260508200107 25 177 4.8 9.7 0.00 0.18 0.18 60 1013.7
20260508194210 25 199 1.6 4.8 0.00 0.18 0.18 60 1013.7
20260508193309 25 195 4.8 8.0 0.00 0.18 0.18 60 1013.7
20260508192408 25 172 3.2 6.4 0.00 0.18 0.18 59 1013.9
20260508192311 25 182 3.2 8.0 0.00 0.18 0.18 58 1013.9
20260508191310 26 214 3.2 4.8 0.00 0.18 0.18 55 1013.9
20260508191210 26 186 4.8 11.3 0.00 0.18 0.18 56 1013.9
20260508190309 26 204 6.4 12.9 0.00 0.18 0.18 55 1013.9
20260508185310 26 184 4.8 8.0 0.00 0.18 0.18 57 1013.9
20260508184309 25 156 4.8 11.3 0.00 0.18 0.18 58 1013.9
20260508183408 25 206 4.8 8.0 0.00 0.18 0.18 57 1014.0
20260508182507 25 170 1.6 6.4 0.00 0.18 0.18 58 1014.3
20260508181509 25 188 4.8 6.4 0.00 0.18 0.18 58 1014.6
20260508180607 25 194 4.8 9.7 0.00 0.18 0.18 58 1014.8
20260508175608 25 215 6.4 11.3 0.00 0.18 0.18 58 1014.9
20260508174610 25 216 6.4 11.3 0.00 0.18 0.18 56 1014.8
20260508173623 25 182 1.6 4.8 0.00 0.18 0.18 57 1015.1
20260508171710 23 164 4.8 11.3 0.00 0.18 0.18 59 1015.2
20260508165808 23 196 0.0 3.2 0.00 0.18 0.18 58 1015.9
20260508164809 23 184 4.8 11.3 0.00 0.18 0.18 59 1015.9
20260508163810 22 199 4.8 6.4 0.00 0.18 0.18 59 1016.3
20260508162908 22 163 6.4 16.1 0.00 0.18 0.18 61 1016.5
20260508161911 21 171 3.2 4.8 0.00 0.18 0.18 62 1016.7
20260508160910 21 191 1.6 3.2 0.00 0.18 0.18 64 1016.8
20260508155909 20 138 6.4 14.5 0.00 0.18 0.18 64 1017.0
20260508153910 20 170 4.8 11.3 0.00 0.18 0.18 64 1017.3
20260508152909 20 160 0.0 1.6 0.00 0.18 0.18 65 1017.5
20260508151910 20 194 1.6 6.4 0.00 0.18 0.18 65 1017.4
20260508150910 20 186 3.2 6.4 0.00 0.18 0.18 66 1017.5
20260508150008 20 201 4.8 8.0 0.00 0.18 0.18 69 1017.5
20260508145009 19 178 1.6 8.0 0.00 0.18 0.18 72 1017.7
20260508144009 18 180 0.0 0.0 0.00 0.18 0.18 71 1017.6
20260508143108 18 176 1.6 4.8 0.00 0.18 0.18 72 1017.7
20260508142109 18 183 4.8 9.7 0.00 0.18 0.18 72 1017.8
20260508141110 18 171 3.2 6.4 0.00 0.18 0.18 74 1017.6
20260508135209 17 169 3.2 6.4 0.00 0.18 0.18 81 1018.0
20260508133208 16 147 3.2 8.0 0.00 0.18 0.18 89 1017.9
20260508132207 16 145 3.2 4.8 0.05 0.18 0.18 92 1017.7
20260508131209 15 168 1.6 4.8 0.08 0.18 0.18 93 1018.1
20260508130307 15 157 0.0 0.0 0.08 0.18 0.18 93 1018.1
20260508125309 15 157 0.0 4.8 0.08 0.18 0.18 91 1017.9
20260508123309 15 165 1.6 3.2 0.08 0.18 0.18 89 1018.0
20260508122309 15 202 0.0 0.0 0.03 0.13 0.13 89 1018.8
20260508121408 15 189 3.2 6.4 0.00 0.10 0.10 90 1018.3
20260508114509 16 168 0.0 1.6 0.03 0.10 0.10 95 1018.3
20260508113508 16 180 0.0 3.2 0.03 0.10 0.10 95 1018.3
20260508112509 15 202 0.0 0.0 0.03 0.10 0.10 94 1018.2
20260508111509 16 202 0.0 0.0 0.03 0.10 0.10 95 1017.9
20260508110508 16 142 1.6 4.8 0.03 0.10 0.10 94 1017.5
20260508105607 16 126 0.0 3.2 0.00 0.08 0.08 94 1017.8
20260508105508 16 56 1.6 6.4 0.00 0.08 0.08 94 1017.9
20260508104508 16 247 0.0 0.0 0.00 0.08 0.08 94 1019.0